Lapse_Rate
9.1 8.8 9.0 9.0 9.1 8.8 8.5 7.4 6.7 3.4 3.3 3.8 3.1 3.5 3.8 4.5 7.4 4.7 4.6 4.5 5.9 6.6
6.5 8.9 8.4 8.4 8.0 7.6 7.8 6.6 5.1 3.2 2.9 1.0 1.4 3.7 3.7 3.6 3.7 3.5 4.7 5.6 4.7 6.2
8.4 7.5 7.4 7.2 6.6 6.4 6.4 4.7 3.6 2.5 1.9 1.7 2.9 3.6 2.8 3.9 4.5 3.6 3.6 4.4 5.3 6.3
6.6 6.9 7.2 6.1 5.7 5.9 5.0 3.6 2.8 1.9 1.6 2.2 2.5 2.5 2.7 3.5 3.8 4.0 4.4 5.2 6.5 8.7
7.2 5.8 5.3 4.8 3.7 2.9 3.0 2.1 1.8 2.0 2.2 2.7 1.6 2.2 3.7 3.8 4.4 4.6 5.4 6.4 8.6 9.2
4.2 3.5 2.3 1.9 1.5 1.5 1.4 1.6 2.2 1.6 1.6 2.7 4.0 4.8 5.4 5.1 4.5 5.4 6.9 8.3 9.2 9.3
2.9 2.7 2.2 2.2 2.6 2.2 2.6 2.6 2.4 2.2 2.9 3.1 3.3 4.6 4.9 4.9 5.3 6.9 7.9 8.1 8.7 9.4
3.0 3.4 3.8 3.7 3.1 2.7 3.2 2.8 3.4 3.6 4.5 5.1 5.2 4.9 4.4 5.4 6.3 6.8 7.6 7.5 8.9 9.8
4.8 5.8 6.0 5.5 5.5 5.4 4.7 5.1 4.8 5.0 4.9 4.1 5.1 3.9 3.9 4.7 6.3 8.3 9.4 9.4 9.6 9.8
7.9 6.7 6.8 7.7 8.3 7.2 6.5 6.4 6.5 5.1 6.3 6.5 6.8 4.2 4.3 4.1 7.9 8.8 9.4 9.5 9.7 9.7
8.4 8.5 9.0 8.1 8.2 7.4 7.4 7.5 7.3 7.5 7.6 8.0 9.2 5.2 5.0 4.3 7.7 8.9 9.6 9.7 9.7 9.9
8.9 7.7 8.8 8.8 8.5 8.8 8.2 8.7 9.3 9.6 9.5 9.5 9.6 5.1 4.3 5.0 7.9 8.0 8.6 9.6 9.7 9.8
9.3 9.2 9.1 9.1 9.3 9.5 9.6 9.5 9.6 9.5 9.6 7.7 9.5 4.6 5.2 5.1 6.5 5.8 6.9 8.1 8.5 7.6
9.2 9.4 9.6 9.5 9.6 9.5 9.5 9.4 9.1 8.3 8.3 9.2 8.8 8.6 5.4 3.8 5.2 6.1 5.4 6.3 7.1 8.2
Wind_Speed
16 11 9 11 9 8 7 6 9 7 10 9 4 8 10 4 5 5 3 3 2 3
16 14 10 11 6 5 5 6 10 12 9 9 12 7 8 5 4 4 2 0 3 5
11 9 8 6 5 6 5 8 9 10 9 8 9 10 9 5 4 4 2 3 6 9
6 10 11 6 6 7 8 9 10 8 8 9 8 9 6 7 4 4 5 6 10 14
5 5 6 5 5 6 6 6 8 9 8 10 10 9 9 8 6 6 8 11 12 11
9 7 7 7 6 6 6 6 7 9 9 9 8 8 6 6 7 9 11 12 11 10
9 8 8 8 7 7 7 8 7 8 8 8 7 8 7 6 7 8 7 10 11 11
9 10 11 11 10 9 8 8 10 9 9 7 6 5 5 6 4 7 11 11 14 14
11 11 11 12 12 10 13 11 11 8 6 4 3 6 5 5 8 12 12 13 14 15
13 13 12 12 11 10 10 9 7 5 4 2 5 8 8 4 9 11 13 14 14 15
13 12 11 10 9 8 6 5 4 3 5 7 4 7 4 2 9 11 14 15 16 16
12 11 9 8 6 4 4 5 3 1 2 3 4 9 9 9 10 12 14 15 17 17
9 8 7 6 6 4 4 3 2 3 3 4 5 13 11 11 8 11 10 13 16 17
9 7 7 6 5 3 3 2 3 3 5 5 6 6 11 12 9 9 10 11 12 12
Wind_Direction
232 234 227 231 227 220 211 190 179 171 180 189 100 102 99 136 195 141 142 140 240 260
222 225 223 231 219 199 194 180 192 179 173 128 120 148 173 138 146 126 154 242 39 266
210 205 217 211 194 189 200 180 179 159 153 139 153 178 147 135 129 105 124 197 239 256
192 202 208 192 192 181 164 177 183 167 148 154 142 133 122 129 129 159 206 235 252 257
160 105 106 105 105 120 153 157 167 163 158 141 142 145 152 150 162 193 232 253 253 256
96 93 100 105 104 106 125 140 139 126 133 143 153 138 148 171 182 224 248 261 269 270
102 107 109 109 113 119 126 121 127 126 134 130 135 155 172 202 233 256 279 292 282 273
120 124 125 123 119 114 115 119 130 131 135 145 153 172 193 220 254 285 272 263 260 265
122 120 121 116 116 122 118 122 129 130 127 128 175 172 195 252 277 276 281 287 285 284
119 116 120 120 112 109 113 128 124 134 152 186 232 210 231 246 282 290 287 286 287 287
120 115 109 113 118 122 126 136 143 181 214 231 245 155 165 18 300 288 288 290 291 290
115 127 129 124 120 121 153 170 171 98 353 316 330 89 52 350 318 307 306 304 301 301
126 118 117 127 119 110 96 91 33 12 354 43 307 81 52 16 333 318 314 310 308 308
123 120 116 115 111 103 85 44 45 358 350 338 20 4 41 26 344 334 326 313 307 303